KC1SQ Weather Reports


Display with metric or nautical units.
time (UTC)temp
F
wind
direction
speed
MPH
gust
MPH
rain 1hr
in
rain 24hr
in
rain mn
in
humidity
%
barometer
mb
20200402102403 38 5 1.0 3.0 0.01 0.02 0.02 79 1001.4
20200402101902 38 62 1.0 3.0 0.01 0.02 0.02 79 1001.3
20200402101401 38 40 1.0 3.0 0.01 0.02 0.02 78 1001.3
20200402100903 38 40 1.0 3.0 0.01 0.02 0.02 78 1001.4
20200402100402 38 5 1.0 3.0 0.00 0.01 0.01 78 1001.4
20200402095859 38 31 1.0 3.0 0.00 0.01 0.01 77 1001.4
20200402095400 38 19 1.0 2.0 0.00 0.01 0.01 77 1001.5
20200402094900 38 15 1.0 2.0 0.00 0.01 0.01 77 1001.4
20200402094400 38 347 1.0 3.0 0.00 0.01 0.01 77 1001.2
20200402093900 38 347 1.0 3.0 0.00 0.01 0.01 77 1001.3
20200402093359 38 55 1.0 2.0 0.00 0.01 0.01 77 1001.3
20200402092905 38 13 1.0 2.0 0.00 0.01 0.01 76 1001.4
20200402092400 38 5 1.0 2.0 0.00 0.01 0.01 76 1001.5
20200402091900 38 12 1.0 2.0 0.00 0.01 0.01 76 1001.6
20200402091400 38 329 1.0 2.0 0.00 0.01 0.01 76 1001.5
20200402090900 38 10 1.0 3.0 0.00 0.01 0.01 75 1001.6
20200402090359 38 5 1.0 3.0 0.00 0.01 0.01 75 1001.6
20200402085859 38 20 1.0 3.0 0.00 0.01 0.01 75 1001.7
20200402085400 38 19 1.0 3.0 0.00 0.01 0.01 75 1001.6
20200402084857 38 22 1.0 3.0 0.00 0.01 0.01 75 1001.8
20200402084358 38 48 1.0 3.0 0.00 0.01 0.01 75 1001.7
20200402083857 38 5 1.0 4.0 0.00 0.01 0.01 75 1001.7
20200402083355 38 54 1.0 4.0 0.00 0.01 0.01 75 1001.8
20200402082855 38 336 1.0 3.0 0.00 0.01 0.01 75 1001.8
20200402082356 38 59 1.0 4.0 0.00 0.01 0.01 74 1001.9
20200402081855 38 0 2.0 4.0 0.00 0.01 0.01 74 1001.9
20200402081355 38 0 2.0 5.0 0.00 0.01 0.01 74 1002.1
20200402080856 38 5 2.0 5.0 0.00 0.01 0.01 73 1002.2
20200402080356 38 314 2.0 3.0 0.00 0.01 0.01 74 1002.3
20200402075856 38 53 2.0 4.0 0.00 0.01 0.01 73 1002.2
20200402075356 38 342 1.0 4.0 0.00 0.01 0.01 74 1002.3
20200402074853 38 13 1.0 3.0 0.00 0.01 0.01 74 1002.2
20200402074353 38 319 1.0 3.0 0.00 0.01 0.01 74 1002.2
20200402073852 38 301 1.0 3.0 0.00 0.01 0.01 74 1002.4
20200402073355 38 18 1.0 3.0 0.00 0.01 0.01 74 1002.6
20200402072854 38 350 1.0 3.0 0.00 0.01 0.01 74 1002.7
20200402072352 38 0 1.0 7.0 0.00 0.01 0.01 74 1002.8
20200402071852 38 0 1.0 7.0 0.00 0.01 0.01 74 1002.9
20200402071351 38 355 1.0 3.0 0.00 0.01 0.01 74 1002.9
20200402070851 38 0 1.0 3.0 0.00 0.01 0.01 74 1003.1
20200402070352 38 355 1.0 3.0 0.00 0.01 0.01 74 1003.1
20200402065851 38 350 1.0 4.0 0.00 0.01 0.01 74 1003.1
20200402065350 38 5 1.0 4.0 0.00 0.01 0.01 74 1003.3
20200402064351 38 14 1.0 3.0 0.00 0.01 0.01 75 1003.5
20200402063851 38 13 1.0 3.0 0.00 0.01 0.01 75 1003.6
20200402062851 37 30 1.0 3.0 0.00 0.01 0.01 75 1003.7
20200402062351 37 355 1.0 3.0 0.01 0.01 0.01 76 1003.7
20200402061926 37 355 1.0 3.0 0.01 0.01 0.01 76 1003.9
20200402061352 37 355 1.0 3.0 0.01 0.01 0.01 76 1004.0
20200402060852 37 329 1.0 4.0 0.01 0.01 0.01 76 1004.1
20200402060350 37 329 1.0 4.0 0.01 0.01 0.01 76 1004.2
20200402055852 37 313 1.0 3.0 0.01 0.01 0.01 76 1004.1
20200402055351 37 343 1.0 4.0 0.01 0.01 0.01 76 1004.3
20200402054850 37 16 1.0 4.0 0.01 0.01 0.01 76 1004.3
20200402054351 37 49 1.0 4.0 0.01 0.01 0.01 76 1004.3
20200402053850 37 347 1.0 4.0 0.01 0.01 0.01 76 1004.5
20200402053351 37 19 1.0 3.0 0.01 0.01 0.01 76 1004.5
20200402052851 37 19 1.0 5.0 0.01 0.01 0.01 76 1004.5
20200402052351 37 355 2.0 5.0 0.00 0.00 0.00 76 1004.5
20200402051852 37 21 1.0 4.0 0.00 0.00 0.00 76 1004.7
20200402051351 37 22 1.0 4.0 0.00 0.00 0.00 75 1004.7
20200402050852 37 0 1.0 4.0 0.00 0.00 0.00 75 1004.9
20200402050351 38 0 1.0 3.0 0.00 0.00 0.00 75 1004.9
20200402045850 38 244 1.0 2.0 0.00 0.00 0.00 76 1004.9
20200402045352 38 53 1.0 4.0 0.00 0.00 0.00 75 1005.1
20200402044852 38 13 1.0 4.0 0.00 0.00 0.00 75 1005.2
20200402044351 38 9 1.0 3.0 0.00 0.00 0.00 74 1005.2
20200402043852 38 350 1.0 3.0 0.00 0.00 0.00 74 1005.2
20200402043351 38 350 1.0 4.0 0.00 0.00 0.00 74 1005.3
20200402042850 38 46 1.0 4.0 0.00 0.00 0.00 73 1005.4
20200402042350 38 26 1.0 3.0 0.00 0.00 0.00 73 1005.5
20200402041851 38 342 1.0 5.0 0.00 0.00 0.00 72 1005.5
20200402041350 38 11 2.0 7.0 0.00 0.00 0.00 72 1005.6
20200402040850 38 319 2.0 7.0 0.00 0.00 0.00 71 1005.7
20200402040350 39 346 2.0 4.0 0.00 0.00 0.00 71 1005.7
20200402035851 39 337 2.0 4.0 0.00 0.00 0.00 70 1005.7
20200402035352 39 49 1.0 4.0 0.00 0.00 0.00 69 1005.8
20200402034850 39 19 1.0 3.0 0.00 0.00 0.00 68 1005.9
20200402034350 39 336 2.0 10.0 0.00 0.00 0.00 68 1005.9
20200402033849 40 60 2.0 10.0 0.00 0.00 0.00 67 1005.9
20200402033346 40 39 2.0 6.0 0.00 0.00 0.00 66 1006.0
20200402032846 40 28 2.0 4.0 0.00 0.00 0.00 66 1006.1
20200402032348 40 59 1.0 4.0 0.00 0.00 0.00 64 1006.2
20200402031847 40 11 2.0 5.0 0.00 0.00 0.00 63 1006.2
20200402031347 40 355 2.0 5.0 0.00 0.00 0.00 62 1006.2
20200402030848 40 340 2.0 3.0 0.00 0.00 0.00 62 1006.2
20200402030347 40 14 2.0 9.0 0.00 0.00 0.00 62 1006.3
20200402025847 41 343 2.0 9.0 0.00 0.00 0.00 62 1006.2
20200402025346 41 62 2.0 4.0 0.00 0.00 0.00 62 1006.2
20200402024848 41 275 2.0 6.0 0.00 0.00 0.00 61 1006.2
20200402024347 41 34 2.0 6.0 0.00 0.00 0.00 61 1006.2
20200402023847 41 41 2.0 5.0 0.00 0.00 0.00 61 1006.3
20200402023347 41 344 2.0 5.0 0.00 0.00 0.00 61 1006.4
20200402022848 41 338 2.0 7.0 0.00 0.00 0.00 61 1006.3
20200402022347 41 5 2.0 7.0 0.00 0.00 0.00 61 1006.4
20200402021850 41 337 1.0 4.0 0.00 0.00 0.00 60 1006.3
20200402021348 41 42 1.0 3.0 0.00 0.00 0.00 60 1006.3
20200402020848 41 307 2.0 4.0 0.00 0.00 0.00 60 1006.3
20200402020346 41 304 2.0 4.0 0.00 0.00 0.00 60 1006.4
20200402015848 41 336 1.0 4.0 0.00 0.00 0.00 60 1006.5
20200402015346 41 86 1.0 3.0 0.00 0.00 0.00 60 1006.4
20200402014847 41 14 1.0 4.0 0.00 0.00 0.00 60 1006.6
20200402014347 41 34 2.0 4.0 0.00 0.00 0.00 60 1006.6
20200402013848 41 40 2.0 4.0 0.00 0.00 0.00 60 1006.7
20200402013346 41 355 1.0 4.0 0.00 0.00 0.00 60 1006.8
20200402012848 41 335 1.0 4.0 0.00 0.01 0.00 60 1006.9
20200402012347 41 18 2.0 6.0 0.00 0.01 0.00 59 1006.8
20200402011848 41 82 1.0 6.0 0.00 0.01 0.00 59 1006.8
20200402011347 41 52 1.0 3.0 0.00 0.01 0.00 59 1006.8
20200402010847 41 34 1.0 3.0 0.00 0.01 0.00 59 1006.8
20200402010347 41 35 1.0 3.0 0.00 0.01 0.00 59 1006.9
20200402005844 41 23 1.0 5.0 0.00 0.01 0.00 59 1006.9
20200402005345 41 71 1.0 5.0 0.00 0.01 0.00 59 1006.8
20200402004844 41 61 1.0 3.0 0.00 0.01 0.00 58 1006.9
20200402004345 41 0 1.0 3.0 0.00 0.01 0.00 58 1006.8
20200402003843 41 5 1.0 3.0 0.00 0.01 0.00 58 1006.9
20200402003342 42 82 1.0 3.0 0.00 0.01 0.00 58 1007.0
20200402002841 41 80 1.0 3.0 0.00 0.01 0.00 58 1006.9
20200402002340 41 35 1.0 3.0 0.00 0.01 0.00 58 1006.9
20200402001840 42 102 1.0 5.0 0.00 0.01 0.00 58 1006.9
20200402001336 42 344 2.0 5.0 0.00 0.01 0.00 58 1006.9
20200402000841 42 12 1.0 3.0 0.00 0.01 0.00 58 1006.8
20200401235839 42 342 1.0 4.0 0.00 0.01 0.00 58 1006.8
20200401235334 42 315 1.0 3.0 0.00 0.01 0.00 58 1006.7
20200401234834 42 23 1.0 4.0 0.00 0.01 0.00 58 1006.6
20200401234335 42 66 2.0 4.0 0.00 0.01 0.00 57 1006.7
20200401233834 42 343 2.0 4.0 0.00 0.01 0.00 57 1006.7
20200401233332 42 47 1.0 4.0 0.00 0.01 0.00 57 1006.8
20200401232832 42 0 1.0 4.0 0.00 0.01 0.00 57 1006.8
20200401232332 42 40 1.0 4.0 0.00 0.01 0.00 56 1006.7
20200401231834 42 355 1.0 4.0 0.00 0.01 0.00 57 1006.6
20200401231331 42 5 1.0 4.0 0.00 0.01 0.00 56 1006.7
20200401230831 43 338 1.0 4.0 0.00 0.01 0.00 56 1006.7
20200401230330 43 5 1.0 3.0 0.00 0.01 0.00 57 1006.9
20200401225830 43 315 1.0 3.0 0.00 0.01 0.00 56 1007.0
20200401225330 43 5 1.0 3.0 0.00 0.01 0.00 57 1007.1
20200401224831 43 60 1.0 3.0 0.00 0.01 0.00 56 1007.2
20200401224330 43 47 1.0 3.0 0.00 0.01 0.00 56 1007.3
20200401223830 43 340 1.0 4.0 0.00 0.01 0.00 57 1007.2
20200401223331 43 340 1.0 4.0 0.00 0.01 0.00 55 1007.1
20200401222830 43 34 1.0 4.0 0.00 0.01 0.00 56 1007.3
20200401222328 43 35 2.0 5.0 0.00 0.01 0.00 55 1007.2
20200401221828 43 14 2.0 5.0 0.00 0.01 0.00 55 1007.2
20200401221330 44 144 1.0 4.0 0.00 0.01 0.00 54 1007.2
20200401220828 44 324 1.0 3.0 0.00 0.01 0.00 54 1007.2
20200401220328 44 23 1.0 3.0 0.00 0.01 0.00 54 1007.3
20200401215828 44 346 1.0 3.0 0.00 0.01 0.00 54 1007.4
20200401215328 44 49 1.0 3.0 0.00 0.01 0.00 53 1007.4
20200401214826 44 49 1.0 4.0 0.00 0.01 0.00 53 1007.4
20200401214328 44 321 1.0 4.0 0.00 0.01 0.00 53 1007.5
20200401213827 44 53 1.0 5.0 0.00 0.01 0.00 54 1007.6
20200401213328 44 344 2.0 5.0 0.00 0.01 0.00 53 1007.5
20200401212827 44 59 2.0 4.0 0.00 0.01 0.00 53 1007.6
20200401212355 45 101 2.0 5.0 0.00 0.01 0.00 52 1007.5
20200401211827 45 66 2.0 6.0 0.00 0.01 0.00 52 1007.4
20200401211327 45 24 2.0 6.0 0.00 0.01 0.00 52 1007.5
20200401210825 45 0 2.0 5.0 0.00 0.01 0.00 51 1007.6
20200401210326 45 0 2.0 4.0 0.00 0.01 0.00 53 1007.4
20200401205824 45 24 1.0 4.0 0.00 0.01 0.00 52 1007.5
20200401205324 45 15 1.0 4.0 0.00 0.01 0.00 53 1007.5
20200401204826 45 10 1.0 4.0 0.00 0.01 0.00 53 1007.4
20200401204325 45 28 2.0 4.0 0.00 0.01 0.00 53 1007.5
20200401203824 45 74 1.0 4.0 0.00 0.01 0.00 54 1007.6
20200401203324 45 348 1.0 4.0 0.00 0.01 0.00 53 1007.7
20200401202825 45 327 1.0 4.0 0.00 0.01 0.00 52 1007.7
20200401202325 45 15 1.0 3.0 0.00 0.01 0.00 53 1007.8
20200401201823 45 355 1.0 2.0 0.00 0.01 0.00 52 1007.8
20200401201321 45 0 1.0 4.0 0.00 0.01 0.00 53 1007.8
20200401200821 44 327 1.0 4.0 0.00 0.01 0.00 53 1007.8
20200401200323 44 71 1.0 4.0 0.00 0.01 0.00 53 1007.9
20200401195823 44 55 1.0 3.0 0.00 0.01 0.00 53 1007.8
20200401195323 44 69 1.0 4.0 0.00 0.01 0.00 52 1007.8
20200401194822 44 39 1.0 4.0 0.00 0.01 0.00 53 1007.8
20200401194322 44 30 1.0 4.0 0.00 0.01 0.00 52 1007.9
20200401193822 44 284 1.0 4.0 0.00 0.01 0.00 53 1007.8
20200401193322 44 355 1.0 3.0 0.00 0.01 0.00 51 1007.9
20200401192820 44 55 1.0 3.0 0.00 0.01 0.00 52 1007.9
20200401192320 44 46 1.0 3.0 0.00 0.01 0.00 54 1007.9
20200401191819 44 5 2.0 3.0 0.00 0.01 0.00 52 1008.0
20200401191320 44 57 1.0 3.0 0.00 0.01 0.00 53 1008.0
20200401190820 44 63 1.0 3.0 0.00 0.01 0.00 51 1008.0
20200401190322 44 60 1.0 5.0 0.00 0.01 0.00 53 1008.0
20200401185818 44 60 1.0 5.0 0.00 0.01 0.00 51 1008.0
20200401185318 44 346 1.0 7.0 0.00 0.01 0.00 52 1008.0
20200401184818 44 5 1.0 7.0 0.00 0.01 0.00 52 1007.9
20200401184318 44 0 2.0 4.0 0.00 0.01 0.00 52 1007.9
20200401183818 44 342 2.0 4.0 0.00 0.01 0.00 51 1008.0
20200401183318 44 67 2.0 4.0 0.00 0.01 0.00 52 1008.0
20200401182818 44 340 2.0 4.0 0.00 0.01 0.00 52 1008.1
20200401182316 44 70 2.0 4.0 0.00 0.01 0.00 52 1008.2
20200401181816 44 90 2.0 4.0 0.00 0.01 0.00 51 1008.2
20200401181315 44 79 1.0 4.0 0.00 0.01 0.00 52 1008.2
20200401180815 44 40 1.0 4.0 0.00 0.01 0.00 52 1008.3
20200401180314 44 355 1.0 4.0 0.00 0.01 0.00 52 1008.4
20200401175815 44 0 1.0 4.0 0.00 0.01 0.00 52 1008.4
20200401175313 44 0 1.0 3.0 0.00 0.01 0.00 52 1008.4
20200401174813 43 355 2.0 3.0 0.00 0.01 0.00 52 1008.5
20200401174313 43 38 1.0 3.0 0.00 0.01 0.00 53 1008.6
20200401173811 43 53 1.0 3.0 0.00 0.01 0.00 53 1008.6
20200401173311 43 41 1.0 3.0 0.00 0.01 0.00 53 1008.9
20200401172811 43 11 1.0 3.0 0.00 0.01 0.00 52 1008.9
20200401172311 43 342 2.0 4.0 0.00 0.01 0.00 53 1008.9
20200401171807 43 336 2.0 4.0 0.00 0.01 0.00 51 1009.0
20200401171308 43 9 1.0 4.0 0.00 0.01 0.00 52 1009.0
20200401170812 43 59 1.0 3.0 0.00 0.01 0.00 52 1009.1
20200401170308 43 47 1.0 3.0 0.00 0.01 0.00 52 1009.0
20200401165808 43 86 2.0 3.0 0.00 0.01 0.00 52 1009.0
20200401165309 43 60 2.0 3.0 0.00 0.01 0.00 51 1009.1
20200401164809 43 26 1.0 3.0 0.00 0.01 0.00 51 1009.1
20200401164307 43 38 1.0 4.0 0.00 0.01 0.00 51 1009.1
20200401163807 43 61 1.0 4.0 0.00 0.01 0.00 51 1009.1
20200401163307 43 5 2.0 3.0 0.00 0.01 0.00 52 1009.1
20200401162805 43 21 2.0 4.0 0.00 0.01 0.00 51 1009.2
20200401162305 43 166 2.0 4.0 0.00 0.01 0.00 52 1009.2
20200401161804 42 31 1.0 4.0 0.00 0.01 0.00 53 1009.1
20200401161304 42 31 2.0 5.0 0.00 0.01 0.00 53 1009.2
20200401160804 42 56 2.0 5.0 0.00 0.01 0.00 53 1009.3
20200401160305 42 21 2.0 5.0 0.00 0.01 0.00 54 1009.3
20200401155803 42 350 2.0 5.0 0.00 0.01 0.00 53 1009.4
20200401155304 42 107 2.0 5.0 0.00 0.01 0.00 53 1009.6
20200401154805 42 355 2.0 5.0 0.00 0.01 0.00 54 1009.7
20200401154304 42 338 2.0 5.0 0.00 0.01 0.00 54 1009.7
20200401153805 42 12 2.0 4.0 0.00 0.01 0.00 54 1009.7
20200401153305 41 21 2.0 4.0 0.00 0.01 0.00 56 1009.8
20200401152803 41 24 2.0 4.0 0.00 0.01 0.00 56 1010.0
20200401152305 41 65 2.0 3.0 0.00 0.01 0.00 56 1010.2
20200401151805 41 59 2.0 3.0 0.00 0.01 0.00 55 1010.3
20200401151304 41 324 2.0 4.0 0.00 0.01 0.00 56 1010.2
20200401150804 40 5 2.0 4.0 0.00 0.01 0.00 57 1010.3
20200401150304 40 67 2.0 4.0 0.00 0.01 0.00 57 1010.3
20200401145804 40 72 2.0 4.0 0.00 0.01 0.00 56 1010.3
20200401145304 40 62 1.0 3.0 0.00 0.01 0.00 57 1010.3
20200401144804 39 59 1.0 3.0 0.00 0.01 0.00 57 1010.4
20200401144303 39 59 1.0 3.0 0.00 0.01 0.00 58 1010.4
20200401143803 39 19 2.0 4.0 0.00 0.01 0.00 58 1010.5
20200401143303 39 328 2.0 5.0 0.00 0.01 0.00 58 1010.6
20200401142805 39 98 2.0 5.0 0.00 0.01 0.00 59 1010.6
20200401142303 38 62 2.0 4.0 0.00 0.01 0.00 59 1010.7
20200401141805 38 35 2.0 8.0 0.00 0.01 0.00 59 1010.8
20200401141303 38 254 2.0 8.0 0.00 0.01 0.00 59 1010.7
20200401140805 38 0 2.0 4.0 0.00 0.01 0.00 60 1010.8
20200401140306 38 323 2.0 4.0 0.00 0.01 0.00 60 1010.7
20200401135805 37 24 2.0 5.0 0.00 0.01 0.00 62 1010.7
20200401135305 37 26 2.0 5.0 0.00 0.01 0.00 60 1010.8
20200401134802 37 0 1.0 4.0 0.00 0.01 0.00 62 1010.8
20200401134303 37 309 1.0 4.0 0.00 0.01 0.00 64 1010.9
20200401133801 37 59 1.0 4.0 0.00 0.01 0.00 63 1010.9
20200401133301 36 35 1.0 3.0 0.00 0.01 0.00 64 1011.0
20200401132801 36 34 2.0 6.0 0.00 0.01 0.00 65 1010.9
20200401132301 36 24 2.0 6.0 0.00 0.01 0.00 64 1011.0
20200401131801 36 52 1.0 4.0 0.00 0.01 0.00 65 1011.1
20200401131301 35 348 1.0 3.0 0.00 0.01 0.00 65 1011.1
20200401130801 35 0 1.0 3.0 0.00 0.01 0.00 66 1011.1
20200401130303 35 327 1.0 4.0 0.00 0.01 0.00 66 1011.1
20200401125801 35 317 1.0 4.0 0.00 0.01 0.00 66 1011.1
20200401125301 34 65 1.0 3.0 0.00 0.01 0.00 67 1011.1
20200401124801 34 65 1.0 3.0 0.00 0.01 0.00 67 1011.2
20200401124303 34 327 1.0 3.0 0.00 0.01 0.00 68 1011.3
20200401123802 34 327 1.0 3.0 0.00 0.01 0.00 67 1011.3
20200401123302 34 346 1.0 3.0 0.00 0.01 0.00 67 1011.4
20200401122802 33 355 1.0 2.0 0.00 0.01 0.00 68 1011.4
20200401122301 33 355 1.0 3.0 0.00 0.01 0.00 68 1011.4
20200401121802 33 355 1.0 3.0 0.00 0.01 0.00 68 1011.3
20200401121302 33 333 1.0 3.0 0.00 0.01 0.00 68 1011.5
20200401120801 32 331 1.0 3.0 0.00 0.01 0.00 68 1011.6
20200401120301 32 53 1.0 3.0 0.00 0.01 0.00 69 1011.6
20200401115801 32 62 1.0 3.0 0.00 0.01 0.00 70 1011.7
20200401115301 31 15 1.0 3.0 0.00 0.01 0.00 71 1011.7
20200401114803 31 351 1.0 3.0 0.00 0.01 0.00 72 1011.6
20200401114301 31 9 0.0 3.0 0.00 0.01 0.00 72 1011.7
20200401113801 31 40 0.0 2.0 0.00 0.01 0.00 74 1011.9
20200401113302 30 40 0.0 2.0 0.00 0.01 0.00 75 1012.0
20200401112801 30 40 1.0 2.0 0.00 0.01 0.00 75 1011.9
20200401112302 30 40 1.0 2.0 0.00 0.01 0.00 77 1011.8
20200401111802 29 40 0.0 1.0 0.00 0.01 0.00 76 1012.3
20200401111301 29 40 0.0 1.0 0.00 0.01 0.00 77 1012.2
20200401110801 29 40 0.0 1.0 0.00 0.01 0.00 77 1012.0
20200401110301 28 40 0.0 1.0 0.00 0.01 0.00 77 1012.0
20200401105803 28 40 0.0 1.0 0.00 0.01 0.00 77 1012.2
20200401105301 28 40 0.0 1.0 0.00 0.01 0.00 77 1012.0
20200401104801 28 40 0.0 1.0 0.00 0.01 0.00 77 1012.0
20200401104301 28 40 0.0 1.0 0.00 0.01 0.00 76 1012.1
20200401103802 28 40 0.0 1.0 0.00 0.01 0.00 76 1012.4
20200401103302 28 40 0.0 1.0 0.00 0.01 0.00 76 1012.5
20200401102801 28 40 0.0 1.0 0.00 0.01 0.00 76 1012.6